Regional Weather Roundup
Issued by NWS

Home | Current Version | Previous Version | Graphics & Text | Print | Product List | Glossary On
Versions: 1 2 3 4 5 6 7 8 9 10 11 12 13 14 15 16 17 18 19 20 21 22 23 24 25 26 27 28 29 30 31 32 33 34 35 36 37 38 39 40 41 42 43 44 45 46 47 48 49
000
ASUS45 KBOU 071507
RWRCO

WEATHER ROUNDUP FOR COLORADO
NATIONAL WEATHER SERVICE DENVER/BOULDER CO
800 AM MST SUN FEB 07 2016

NOTE: "FAIR" INDICATES FEW OR NO CLOUDS BELOW 12000 FEET WITH NO
SIGNIFICANT WEATHER AND/OR OBSTRUCTIONS TO VISIBILITY.

COZ001>005-013-030-031-071600-
...NORTHWEST COLORADO...

CITY           SKY/WX    TMP DP  RH WIND       PRES   REMARKS
CRAIG          CLOUDY    -4  -6  91 CALM      30.46R
HAYDEN         CLOUDY     9   7  92 E3        30.43R
MEEKER         CLOUDY     9   5  84 CALM      30.46R
MOUNT WERNER   NOT AVBL
STEAMBOAT SPGS CLOUDY    13   9  83 CALM      30.43R
WALDEN         CLEAR     19  10  68 SW3       30.30R
$$

COZ006>008-011-071600-
...WEST CENTRAL VALLEYS...

CITY           SKY/WX    TMP DP  RH WIND       PRES   REMARKS
GRAND JUNCTION CLOUDY    10   9  95 E5        30.52R FOG     WCI   2
MONTROSE       CLOUDY    12   7  80 SE6       30.51R WCI   3
EAGLE          PTCLDY     1   0  92 CALM      30.49R
RIFLE          CLOUDY     8   3  80 CALM      30.53R
DELTA          CLOUDY    19  15  86 CALM      30.53R
NUCLA          CLOUDY    18  10  73 SE3       30.50R
$$

COZ017>023-064>068-071600-
...SOUTHWEST COLORADO...

CITY           SKY/WX    TMP DP  RH WIND       PRES   REMARKS
DURANGO        CLOUDY     5   2  87 E6        30.38R WCI  -6
CORTEZ         CLOUDY    13   8  81 E7        30.42R WCI   3
PAGOSA SPRINGS CLOUDY   N/A N/A N/A CALM      30.36R
TELLURIDE      CLOUDY    22  13  67 SE6       30.44S WCI  15
WOLF CREEK PAS CLOUDY    23   5  46 W14G22    30.39R WCI  11
$$

COZ009-010-012-014-032>034-037-058>063-071600-
...CENTRAL COLORADO...

CITY           SKY/WX    TMP DP  RH WIND       PRES   REMARKS
ASPEN          CLOUDY    14   9  80 VRB5      30.42R WCI   6
BUENA VISTA    CLOUDY    32   7  35 W10       30.29R WCI  24
COPPER MTN     NOT AVBL
BERTHOUD PASS  CLOUDY     9  -2  61 NW41G63   30.24F HAZE    WCI -17
COTTONWOOD PAS CLOUDY    32   0  25 W28G56    30.26R WCI  18
GUNNISON       CLOUDY   -15 N/A N/A E5        30.53R WCI -27
KREMMLING      CLOUDY     5   0  78 E5        30.39R WCI  -4
LEADVILLE      CLOUDY    20   8  60 N13G22    30.35R WCI   7
MONARCH PASS   CLOUDY    12   7  79 MISG      30.42R
SALIDA         NOT AVBL
SUNLIGHT       CLOUDY    18  14  86 SW5         N/A  WCI  11
WILKERSON PASS CLOUDY    21   3  45 NW14G35   30.29R WCI   8
$$

COZ069>075-071600-
...SAN LUIS VALLEY/SANGRE DE CRISTO MOUNTAINS...

CITY           SKY/WX    TMP DP  RH WIND       PRES   REMARKS
ALAMOSA        CLOUDY     5   0  79 CALM      30.34R
LA VETA PASS   CLOUDY    27   5  39 MISG      30.29S
SAGUACHE       CLOUDY    28  12  50 N7        30.34R WCI  21
$$

COZ035-036-038>040-071600-
...NORTHERN COLORADO FRONT RANGE...

CITY           SKY/WX    TMP DP  RH WIND       PRES   REMARKS
DENVER INTL AP PTCLDY    28  12  51 SE7       30.22R WCI  21
DMNS CITY PARK   N/A     43  13  29 W14G23    30.23R
AURORA         PTCLDY    36  19  48 NW12      30.22R
FRONT RANGE AP NOT AVBL
ERIE MUNI ARPT CLEAR     33  14  45 CALM      30.22R
BOULDER MUN AP CLEAR     43  16  33 W23G32    30.19R
CENTENNIAL     CLOUDY    39  15  37 NW15      30.21R
BROOMFIELD     PTCLDY    37  16  41 W12       30.21R
FORT COLLINS   CLEAR     41  16  36 NE18G26   30.22R
LONGMONT       CLEAR     38  12  35 S6        30.22R
$$

COZ041-046-047-076>085-087-088-071600-
...PIKES PEAK/PALMER DIVIDE AND SOUTHERN FOOTHILLS...

CITY           SKY/WX    TMP DP  RH WIND       PRES   REMARKS
COLO. SPRINGS  CLOUDY    29  16  58 S5        30.25R WCI  24
A. F. ACADEMY  CLOUDY    28   9  43 NE8       30.24R WCI  20
SCHRIEVER AFB  FAIR      24  14  65 W8        30.26R WCI  15
ELLICOTT       NOT AVBL
FALCON         CLOUDY    27  10  48 W9        30.25R WCI  18
FORT CARSON    CLOUDY    30  17  60 S9        30.24R WCI  21
LIMON          CLOUDY    17  10  74 NW8       30.25R WCI   7
MONUMENT HILL  CLOUDY    21   5  49 SE6       30.25R WCI  14
TRINIDAD       CLOUDY    36  17  46 E6        30.26R
$$

COZ042>045-048>051-090-091-071600-
...NORTHEAST COLORADO...

CITY           SKY/WX    TMP DP  RH WIND       PRES   REMARKS
GREELEY ARPT   CLOUDY    21  16  79 E10       30.27R WCI  10
AKRON          SUNNY     23  16  74 NW15      30.25R WCI  10
BURLINGTON     SUNNY     23  13  65 NW13      30.24R WCI  11
WRAY           CLOUDY    28  18  67 NW9       30.25R WCI  19
STERLING       SUNNY     18  14  86 N3        30.27R
HOLYOKE        CLOUDY    34  25  69 NW23      30.25R WCI  22
FORT MORGAN    CLEAR     27  17  64 N9        30.28R WCI  18
$$

COZ086-089-092>099-071600-
...SOUTHEAST COLORADO...

CITY           SKY/WX    TMP DP  RH WIND       PRES   REMARKS
PUEBLO         CLOUDY    32  23  69 CALM      30.26R
LA JUNTA       CLOUDY    34  25  69 CALM      30.27R
LAMAR          CLOUDY    27  24  89 SW6       30.25R WCI  20
SPRINGFIELD      N/A     34  24  67 NW9       30.24R WCI  27
$$



USA.gov is the U.S. government's official web portal to all federal, state and local government web resources and services.